Retour au catalogue

DELTA 1 DEB

ActifSSO
NORAD 19359·DEBRIS·🇺🇸 United States

Lancé Mar 5, 1978 depuis Vandenberg Space Force Base

Loading…

Prochains Passages (prochaines 24 heures)

TLE

VieillissantSource: Space-Track

Époque: Sep 10, 2026, 07:54 UTC

1 19359U 78026HM  26253.32919788  .00001607  00000-0  37217-3 0  9992
2 19359  98.5671 280.3330 0014813 284.4361  87.9980 14.56448914514837

Suivez DELTA 1 DEB en temps réel avec AllMySat

Download on the App Store